User: anonymous   Login
Location: Theydon Bois
(51.6750°N, 0.1050°E)
Time: 22:08:30
(UTC+00:00)
Language:

Cosmos 2366 rocket - Orbit

View from above orbital plane
View from above orbital plane
View from above satellite
View from above satellite

Ground track
Ground track

The orbit data is extracted from the following two-line orbital elements,

1 25893U 99045B   18049.56132973 -.00000033  00000-0 -49397-4 0  9996
2 25893  82.9268 201.0968 0029733 124.2791 304.9856 13.76507302928547
Epoch (UTC): 18 February 2018 13:28:18
Eccentricity: 0.0029733
inclination: 82.9268°
perigee height: 954 km
apogee height: 998 km
right ascension of ascending node: 201.0968°
argument of perigee: 124.2791°
revolutions per day: 13.76507302
mean anomaly at epoch: 304.9856°
orbit number at epoch: 92854

The dashed part of the orbit path shows where the satellite is in the earth's shadow,  

DLR